owner,sensor,date,latitude,longitude,vertical_datum,sea_water_practical_salinity,qcFlag 
DISL,ioos:station:DISL:MHPA:1,2015-09-01T00:00:00Z,30.6671,-87.9365,1.26,3.3,1111122 
DISL,ioos:station:DISL:MHPA:1,2015-09-01T00:30:00Z,30.6671,-87.9365,1.237,3.31,1111122 
DISL,ioos:station:DISL:MHPA:1,2015-09-01T01:00:00Z,30.6671,-87.9365,1.209,3.33,1111122 
DISL,ioos:station:DISL:MHPA:1,2015-09-01T01:30:00Z,30.6671,-87.9365,1.166,3.37,1111122 
DISL,ioos:station:DISL:MHPA:1,2015-09-01T02:00:00Z,30.6671,-87.9365,1.131,3.35,1111122 
DISL,ioos:station:DISL:MHPA:1,2015-09-01T02:30:00Z,30.6671,-87.9365,1.108,3.35,1111122 
DISL,ioos:station:DISL:MHPA:1,2015-09-01T03:00:00Z,30.6671,-87.9365,1.09,3.34,1111122 
DISL,ioos:station:DISL:MHPA:1,2015-09-01T03:30:00Z,30.6671,-87.9365,1.095,3.35,1111122 
DISL,ioos:station:DISL:MHPA:1,2015-09-01T04:00:00Z,30.6671,-87.9365,1.103,3.34,1111122 
DISL,ioos:station:DISL:MHPA:1,2015-09-01T04:30:00Z,30.6671,-87.9365,1.12,3.35,1111122 
DISL,ioos:station:DISL:MHPA:1,2015-09-01T05:00:00Z,30.6671,-87.9365,1.149,3.35,1111122 
DISL,ioos:station:DISL:MHPA:1,2015-09-01T05:30:00Z,30.6671,-87.9365,1.168,3.38,1111122 
DISL,ioos:station:DISL:MHPA:1,2015-09-01T06:00:00Z,30.6671,-87.9365,1.183,3.36,1111122 
DISL,ioos:station:DISL:MHPA:1,2015-09-01T06:30:00Z,30.6671,-87.9365,1.206,3.36,1111122 
DISL,ioos:station:DISL:MHPA:1,2015-09-01T07:00:00Z,30.6671,-87.9365,1.225,3.37,1111122 
DISL,ioos:station:DISL:MHPA:1,2015-09-01T07:30:00Z,30.6671,-87.9365,1.216,3.39,1111122 
DISL,ioos:station:DISL:MHPA:1,2015-09-01T08:00:00Z,30.6671,-87.9365,1.217,3.38,1111122 
DISL,ioos:station:DISL:MHPA:1,2015-09-01T08:30:00Z,30.6671,-87.9365,1.221,3.36,1111122 
DISL,ioos:station:DISL:MHPA:1,2015-09-01T09:00:00Z,30.6671,-87.9365,1.207,3.36,1111122 
DISL,ioos:station:DISL:MHPA:1,2015-09-01T09:30:00Z,30.6671,-87.9365,1.211,3.35,1111122 
DISL,ioos:station:DISL:MHPA:1,2015-09-01T10:00:00Z,30.6671,-87.9365,1.21,3.33,1111122 
DISL,ioos:station:DISL:MHPA:1,2015-09-01T10:30:00Z,30.6671,-87.9365,1.181,3.34,1111122 
DISL,ioos:station:DISL:MHPA:1,2015-09-01T11:00:00Z,30.6671,-87.9365,1.171,3.32,1111122 
DISL,ioos:station:DISL:MHPA:1,2015-09-01T11:30:00Z,30.6671,-87.9365,1.148,3.33,1111122 
DISL,ioos:station:DISL:MHPA:1,2015-09-01T12:00:00Z,30.6671,-87.9365,1.116,3.32,1111122 
DISL,ioos:station:DISL:MHPA:1,2015-09-01T12:30:00Z,30.6671,-87.9365,1.081,3.34,1111122 
DISL,ioos:station:DISL:MHPA:1,2015-09-01T13:00:00Z,30.6671,-87.9365,1.055,3.35,1111122 
DISL,ioos:station:DISL:MHPA:1,2015-09-01T13:30:00Z,30.6671,-87.9365,1.023,3.36,1111122 
DISL,ioos:station:DISL:MHPA:1,2015-09-01T14:00:00Z,30.6671,-87.9365,0.998,3.35,1111122 
DISL,ioos:station:DISL:MHPA:1,2015-09-01T14:30:00Z,30.6671,-87.9365,0.983,3.36,1111122 
DISL,ioos:station:DISL:MHPA:1,2015-09-01T15:00:00Z,30.6671,-87.9365,0.974,3.36,1111122 
DISL,ioos:station:DISL:MHPA:1,2015-09-01T15:30:00Z,30.6671,-87.9365,0.973,3.37,1111122 
DISL,ioos:station:DISL:MHPA:1,2015-09-01T16:00:00Z,30.6671,-87.9365,0.992,3.37,1111122 
DISL,ioos:station:DISL:MHPA:1,2015-09-01T16:30:00Z,30.6671,-87.9365,1.013,3.36,1111122 
DISL,ioos:station:DISL:MHPA:1,2015-09-01T17:00:00Z,30.6671,-87.9365,1.043,3.34,1111122 
DISL,ioos:station:DISL:MHPA:1,2015-09-01T17:30:00Z,30.6671,-87.9365,1.075,3.3,1111122 
DISL,ioos:station:DISL:MHPA:1,2015-09-01T18:00:00Z,30.6671,-87.9365,1.12,3.25,1111122 
DISL,ioos:station:DISL:MHPA:1,2015-09-01T18:30:00Z,30.6671,-87.9365,1.153,3.26,1111122 
DISL,ioos:station:DISL:MHPA:1,2015-09-01T19:00:00Z,30.6671,-87.9365,1.183,3.27,1111122 
DISL,ioos:station:DISL:MHPA:1,2015-09-01T19:30:00Z,30.6671,-87.9365,1.219,3.26,1111122 
DISL,ioos:station:DISL:MHPA:1,2015-09-01T20:00:00Z,30.6671,-87.9365,1.23,3.26,1111122 
DISL,ioos:station:DISL:MHPA:1,2015-09-01T20:30:00Z,30.6671,-87.9365,1.255,3.26,1111122 
DISL,ioos:station:DISL:MHPA:1,2015-09-01T21:00:00Z,30.6671,-87.9365,1.288,3.26,1111122 
DISL,ioos:station:DISL:MHPA:1,2015-09-01T21:30:00Z,30.6671,-87.9365,1.315,3.16,1111122 
DISL,ioos:station:DISL:MHPA:1,2015-09-01T22:00:00Z,30.6671,-87.9365,1.333,3.17,1111122 
DISL,ioos:station:DISL:MHPA:1,2015-09-01T22:30:00Z,30.6671,-87.9365,1.342,3.17,1111122 
DISL,ioos:station:DISL:MHPA:1,2015-09-01T23:00:00Z,30.6671,-87.9365,1.373,3.17,1111122 
DISL,ioos:station:DISL:MHPA:1,2015-09-01T23:30:00Z,30.6671,-87.9365,1.354,3.17,1111122 
DISL,ioos:station:DISL:MHPA:1,2015-09-02T00:00:00Z,30.6671,-87.9365,1.347,3.19,1111122 
DISL,ioos:station:DISL:MHPA:1,2015-09-02T00:30:00Z,30.6671,-87.9365,1.317,3.25,1111122 
DISL,ioos:station:DISL:MHPA:1,2015-09-02T01:00:00Z,30.6671,-87.9365,1.289,3.24,1111122 
DISL,ioos:station:DISL:MHPA:1,2015-09-02T01:30:00Z,30.6671,-87.9365,1.268,3.21,1111122 
DISL,ioos:station:DISL:MHPA:1,2015-09-02T02:00:00Z,30.6671,-87.9365,1.244,3.16,1111122 
DISL,ioos:station:DISL:MHPA:1,2015-09-02T02:30:00Z,30.6671,-87.9365,1.221,3.19,1111122 
DISL,ioos:station:DISL:MHPA:1,2015-09-02T03:00:00Z,30.6671,-87.9365,1.208,3.17,1111122 
DISL,ioos:station:DISL:MHPA:1,2015-09-02T03:30:00Z,30.6671,-87.9365,1.203,3.2,1111122 
DISL,ioos:station:DISL:MHPA:1,2015-09-02T04:00:00Z,30.6671,-87.9365,1.203,3.1,1111122 
DISL,ioos:station:DISL:MHPA:1,2015-09-02T04:30:00Z,30.6671,-87.9365,1.21,3.15,1111122 
DISL,ioos:station:DISL:MHPA:1,2015-09-02T05:00:00Z,30.6671,-87.9365,1.227,3.17,1111122 
DISL,ioos:station:DISL:MHPA:1,2015-09-02T05:30:00Z,30.6671,-87.9365,1.255,3.17,1111122 
DISL,ioos:station:DISL:MHPA:1,2015-09-02T06:00:00Z,30.6671,-87.9365,1.275,3.2,1111122 
DISL,ioos:station:DISL:MHPA:1,2015-09-02T06:30:00Z,30.6671,-87.9365,1.278,3.2,1111122 
DISL,ioos:station:DISL:MHPA:1,2015-09-02T07:00:00Z,30.6671,-87.9365,1.288,3.12,1111122 
DISL,ioos:station:DISL:MHPA:1,2015-09-02T07:30:00Z,30.6671,-87.9365,1.292,3.18,1111122 
DISL,ioos:station:DISL:MHPA:1,2015-09-02T08:00:00Z,30.6671,-87.9365,1.276,3.14,1111122 
DISL,ioos:station:DISL:MHPA:1,2015-09-02T08:30:00Z,30.6671,-87.9365,1.276,3.17,1111122 
DISL,ioos:station:DISL:MHPA:1,2015-09-02T09:00:00Z,30.6671,-87.9365,1.256,3.15,1111122 
DISL,ioos:station:DISL:MHPA:1,2015-09-02T09:30:00Z,30.6671,-87.9365,1.239,3.16,1111122 
DISL,ioos:station:DISL:MHPA:1,2015-09-02T10:00:00Z,30.6671,-87.9365,1.224,3.16,1111122 
DISL,ioos:station:DISL:MHPA:1,2015-09-02T10:30:00Z,30.6671,-87.9365,1.208,3.18,1111122 
DISL,ioos:station:DISL:MHPA:1,2015-09-02T11:00:00Z,30.6671,-87.9365,1.193,3.15,1111122 
DISL,ioos:station:DISL:MHPA:1,2015-09-02T11:30:00Z,30.6671,-87.9365,1.175,3.16,1111122 
DISL,ioos:station:DISL:MHPA:1,2015-09-02T12:00:00Z,30.6671,-87.9365,1.146,3.11,1111122 
DISL,ioos:station:DISL:MHPA:1,2015-09-02T12:30:00Z,30.6671,-87.9365,1.112,3.08,1111122 
DISL,ioos:station:DISL:MHPA:1,2015-09-02T13:00:00Z,30.6671,-87.9365,1.072,3.07,1111122 
DISL,ioos:station:DISL:MHPA:1,2015-09-02T13:30:00Z,30.6671,-87.9365,1.042,3.1,1111122 
DISL,ioos:station:DISL:MHPA:1,2015-09-02T14:00:00Z,30.6671,-87.9365,1.021,3.15,1111122 
DISL,ioos:station:DISL:MHPA:1,2015-09-02T14:30:00Z,30.6671,-87.9365,0.995,3.14,1111122 
DISL,ioos:station:DISL:MHPA:1,2015-09-02T15:00:00Z,30.6671,-87.9365,0.975,3.12,1111122 
DISL,ioos:station:DISL:MHPA:1,2015-09-02T15:30:00Z,30.6671,-87.9365,0.96,3.13,1111122 
DISL,ioos:station:DISL:MHPA:1,2015-09-02T16:00:00Z,30.6671,-87.9365,0.956,3.15,1111122 
DISL,ioos:station:DISL:MHPA:1,2015-09-02T16:30:00Z,30.6671,-87.9365,0.958,3.14,1111122 
DISL,ioos:station:DISL:MHPA:1,2015-09-02T17:00:00Z,30.6671,-87.9365,0.96,3.08,1111122 
DISL,ioos:station:DISL:MHPA:1,2015-09-02T17:30:00Z,30.6671,-87.9365,0.975,3.11,1111122 
DISL,ioos:station:DISL:MHPA:1,2015-09-02T18:00:00Z,30.6671,-87.9365,0.985,3.11,1111122 
DISL,ioos:station:DISL:MHPA:1,2015-09-02T18:30:00Z,30.6671,-87.9365,1.01,3.07,1111122 
DISL,ioos:station:DISL:MHPA:1,2015-09-02T19:00:00Z,30.6671,-87.9365,1.047,3.09,1111122 
DISL,ioos:station:DISL:MHPA:1,2015-09-02T19:30:00Z,30.6671,-87.9365,1.076,3.09,1111122 
DISL,ioos:station:DISL:MHPA:1,2015-09-02T20:00:00Z,30.6671,-87.9365,1.106,3.12,1111122 
DISL,ioos:station:DISL:MHPA:1,2015-09-02T20:30:00Z,30.6671,-87.9365,1.137,3.15,1111122 
DISL,ioos:station:DISL:MHPA:1,2015-09-02T21:00:00Z,30.6671,-87.9365,1.156,3.14,1111122 
DISL,ioos:station:DISL:MHPA:1,2015-09-02T21:30:00Z,30.6671,-87.9365,1.185,3.11,1111122 
DISL,ioos:station:DISL:MHPA:1,2015-09-02T22:00:00Z,30.6671,-87.9365,1.209,3.12,1111122 
DISL,ioos:station:DISL:MHPA:1,2015-09-02T22:30:00Z,30.6671,-87.9365,1.236,3.15,1111122 
DISL,ioos:station:DISL:MHPA:1,2015-09-02T23:00:00Z,30.6671,-87.9365,1.25,3.19,1111122 
DISL,ioos:station:DISL:MHPA:1,2015-09-02T23:30:00Z,30.6671,-87.9365,1.244,3.18,1111122 
DISL,ioos:station:DISL:MHPA:1,2015-09-03T00:00:00Z,30.6671,-87.9365,1.248,3.18,1111122 
DISL,ioos:station:DISL:MHPA:1,2015-09-03T00:30:00Z,30.6671,-87.9365,1.255,3.16,1111122 
DISL,ioos:station:DISL:MHPA:1,2015-09-03T01:00:00Z,30.6671,-87.9365,1.246,3.19,1111122 
DISL,ioos:station:DISL:MHPA:1,2015-09-03T01:30:00Z,30.6671,-87.9365,1.241,3.18,1111122 
DISL,ioos:station:DISL:MHPA:1,2015-09-03T02:00:00Z,30.6671,-87.9365,1.241,3.18,1111122 
DISL,ioos:station:DISL:MHPA:1,2015-09-03T02:30:00Z,30.6671,-87.9365,1.256,3.19,1111122 
DISL,ioos:station:DISL:MHPA:1,2015-09-03T03:00:00Z,30.6671,-87.9365,1.246,3.18,1111122 
DISL,ioos:station:DISL:MHPA:1,2015-09-03T03:30:00Z,30.6671,-87.9365,1.239,3.15,1111122 
DISL,ioos:station:DISL:MHPA:1,2015-09-03T04:00:00Z,30.6671,-87.9365,1.255,3.13,1111122 
DISL,ioos:station:DISL:MHPA:1,2015-09-03T04:30:00Z,30.6671,-87.9365,1.267,3.11,1111122 
DISL,ioos:station:DISL:MHPA:1,2015-09-03T05:00:00Z,30.6671,-87.9365,1.28,3.11,1111122 
DISL,ioos:station:DISL:MHPA:1,2015-09-03T05:30:00Z,30.6671,-87.9365,1.287,3.11,1111122 
DISL,ioos:station:DISL:MHPA:1,2015-09-03T06:00:00Z,30.6671,-87.9365,1.321,3.12,1111122 
DISL,ioos:station:DISL:MHPA:1,2015-09-03T06:30:00Z,30.6671,-87.9365,1.344,3.12,1111122 
DISL,ioos:station:DISL:MHPA:1,2015-09-03T07:00:00Z,30.6671,-87.9365,1.361,3.12,1111122 
DISL,ioos:station:DISL:MHPA:1,2015-09-03T07:30:00Z,30.6671,-87.9365,1.369,3.12,1111122 
DISL,ioos:station:DISL:MHPA:1,2015-09-03T08:00:00Z,30.6671,-87.9365,1.386,3.11,1111122 
DISL,ioos:station:DISL:MHPA:1,2015-09-03T08:30:00Z,30.6671,-87.9365,1.372,3.12,1111122 
DISL,ioos:station:DISL:MHPA:1,2015-09-03T09:00:00Z,30.6671,-87.9365,1.364,3.13,1111122 
DISL,ioos:station:DISL:MHPA:1,2015-09-03T09:30:00Z,30.6671,-87.9365,1.351,3.15,1111122 
DISL,ioos:station:DISL:MHPA:1,2015-09-03T10:00:00Z,30.6671,-87.9365,1.326,3.14,1111122 
DISL,ioos:station:DISL:MHPA:1,2015-09-03T10:30:00Z,30.6671,-87.9365,1.317,3.14,1111122 
DISL,ioos:station:DISL:MHPA:1,2015-09-03T11:00:00Z,30.6671,-87.9365,1.295,3.13,1111122 
DISL,ioos:station:DISL:MHPA:1,2015-09-03T11:30:00Z,30.6671,-87.9365,1.268,3.12,1111122 
DISL,ioos:station:DISL:MHPA:1,2015-09-03T12:00:00Z,30.6671,-87.9365,1.257,3.11,1111122 
DISL,ioos:station:DISL:MHPA:1,2015-09-03T12:30:00Z,30.6671,-87.9365,1.216,3.12,1111122 
DISL,ioos:station:DISL:MHPA:1,2015-09-03T13:00:00Z,30.6671,-87.9365,1.184,3.14,1111122 
DISL,ioos:station:DISL:MHPA:1,2015-09-03T13:30:00Z,30.6671,-87.9365,1.155,3.16,1111122 
DISL,ioos:station:DISL:MHPA:1,2015-09-03T14:00:00Z,30.6671,-87.9365,1.116,3.17,1111122 
DISL,ioos:station:DISL:MHPA:1,2015-09-03T14:30:00Z,30.6671,-87.9365,1.081,3.22,1111122 
DISL,ioos:station:DISL:MHPA:1,2015-09-03T15:00:00Z,30.6671,-87.9365,1.046,3.23,1111122 
DISL,ioos:station:DISL:MHPA:1,2015-09-03T15:30:00Z,30.6671,-87.9365,1.024,3.22,1111122 
DISL,ioos:station:DISL:MHPA:1,2015-09-03T16:00:00Z,30.6671,-87.9365,0.999,3.22,1111122 
DISL,ioos:station:DISL:MHPA:1,2015-09-03T16:30:00Z,30.6671,-87.9365,0.987,3.22,1111122 
DISL,ioos:station:DISL:MHPA:1,2015-09-03T17:00:00Z,30.6671,-87.9365,0.987,3.21,1111122 
DISL,ioos:station:DISL:MHPA:1,2015-09-03T17:30:00Z,30.6671,-87.9365,0.977,3.2,1111122 
DISL,ioos:station:DISL:MHPA:1,2015-09-03T18:00:00Z,30.6671,-87.9365,0.973,3.19,1111122 
DISL,ioos:station:DISL:MHPA:1,2015-09-03T18:30:00Z,30.6671,-87.9365,0.976,3.16,1111122 
DISL,ioos:station:DISL:MHPA:1,2015-09-03T19:00:00Z,30.6671,-87.9365,0.998,3.14,1111122 
DISL,ioos:station:DISL:MHPA:1,2015-09-03T19:30:00Z,30.6671,-87.9365,1.015,3.15,1111122 
DISL,ioos:station:DISL:MHPA:1,2015-09-03T20:00:00Z,30.6671,-87.9365,1.041,3.15,1111122 
DISL,ioos:station:DISL:MHPA:1,2015-09-03T20:30:00Z,30.6671,-87.9365,1.07,3.15,1111122 
DISL,ioos:station:DISL:MHPA:1,2015-09-03T21:00:00Z,30.6671,-87.9365,1.123,3.16,1111122 
DISL,ioos:station:DISL:MHPA:1,2015-09-03T21:30:00Z,30.6671,-87.9365,1.15,3.17,1111122 
DISL,ioos:station:DISL:MHPA:1,2015-09-03T22:00:00Z,30.6671,-87.9365,1.149,3.17,1111122 
DISL,ioos:station:DISL:MHPA:1,2015-09-03T22:30:00Z,30.6671,-87.9365,1.164,3.17,1111122 
DISL,ioos:station:DISL:MHPA:1,2015-09-03T23:00:00Z,30.6671,-87.9365,1.178,3.17,1111122 
DISL,ioos:station:DISL:MHPA:1,2015-09-03T23:30:00Z,30.6671,-87.9365,1.182,3.17,1111122 
DISL,ioos:station:DISL:MHPA:1,2015-09-04T00:00:00Z,30.6671,-87.9365,1.195,3.17,1111122 
DISL,ioos:station:DISL:MHPA:1,2015-09-04T00:30:00Z,30.6671,-87.9365,1.181,3.18,1111122 
DISL,ioos:station:DISL:MHPA:1,2015-09-04T01:00:00Z,30.6671,-87.9365,1.215,3.17,1111122 
DISL,ioos:station:DISL:MHPA:1,2015-09-04T01:30:00Z,30.6671,-87.9365,1.237,3.18,1111122 
DISL,ioos:station:DISL:MHPA:1,2015-09-04T02:00:00Z,30.6671,-87.9365,1.241,3.18,1111122 
DISL,ioos:station:DISL:MHPA:1,2015-09-04T02:30:00Z,30.6671,-87.9365,1.261,3.17,1111122 
DISL,ioos:station:DISL:MHPA:1,2015-09-04T03:00:00Z,30.6671,-87.9365,1.261,3.18,1111122 
DISL,ioos:station:DISL:MHPA:1,2015-09-04T03:30:00Z,30.6671,-87.9365,1.271,3.18,1111122 
DISL,ioos:station:DISL:MHPA:1,2015-09-04T04:00:00Z,30.6671,-87.9365,1.253,3.18,1111122 
DISL,ioos:station:DISL:MHPA:1,2015-09-04T04:30:00Z,30.6671,-87.9365,1.256,3.18,1111122 
DISL,ioos:station:DISL:MHPA:1,2015-09-04T05:00:00Z,30.6671,-87.9365,1.267,3.18,1111122 
DISL,ioos:station:DISL:MHPA:1,2015-09-04T05:30:00Z,30.6671,-87.9365,1.261,3.19,1111122 
DISL,ioos:station:DISL:MHPA:1,2015-09-04T06:00:00Z,30.6671,-87.9365,1.287,3.2,1111122 
DISL,ioos:station:DISL:MHPA:1,2015-09-04T06:30:00Z,30.6671,-87.9365,1.314,3.2,1111122 
DISL,ioos:station:DISL:MHPA:1,2015-09-04T07:00:00Z,30.6671,-87.9365,1.337,3.21,1111122 
DISL,ioos:station:DISL:MHPA:1,2015-09-04T07:30:00Z,30.6671,-87.9365,1.348,3.2,1111122 
DISL,ioos:station:DISL:MHPA:1,2015-09-04T08:00:00Z,30.6671,-87.9365,1.36,3.2,1111122 
DISL,ioos:station:DISL:MHPA:1,2015-09-04T08:30:00Z,30.6671,-87.9365,1.358,3.21,1111122 
DISL,ioos:station:DISL:MHPA:1,2015-09-04T09:00:00Z,30.6671,-87.9365,1.357,3.21,1111122 
DISL,ioos:station:DISL:MHPA:1,2015-09-04T09:30:00Z,30.6671,-87.9365,1.36,3.21,1111122 
DISL,ioos:station:DISL:MHPA:1,2015-09-04T10:00:00Z,30.6671,-87.9365,1.349,3.23,1111122 
DISL,ioos:station:DISL:MHPA:1,2015-09-04T10:30:00Z,30.6671,-87.9365,1.346,3.22,1111122 
DISL,ioos:station:DISL:MHPA:1,2015-09-04T11:00:00Z,30.6671,-87.9365,1.331,3.22,1111122 
DISL,ioos:station:DISL:MHPA:1,2015-09-04T11:30:00Z,30.6671,-87.9365,1.311,3.22,1111122 
DISL,ioos:station:DISL:MHPA:1,2015-09-04T12:00:00Z,30.6671,-87.9365,1.286,3.22,1111122 
DISL,ioos:station:DISL:MHPA:1,2015-09-04T12:30:00Z,30.6671,-87.9365,1.26,3.23,1111122 
DISL,ioos:station:DISL:MHPA:1,2015-09-04T13:00:00Z,30.6671,-87.9365,1.229,3.23,1111122 
DISL,ioos:station:DISL:MHPA:1,2015-09-04T13:30:00Z,30.6671,-87.9365,1.19,3.23,1111122 
DISL,ioos:station:DISL:MHPA:1,2015-09-04T14:00:00Z,30.6671,-87.9365,1.155,3.26,1111122 
DISL,ioos:station:DISL:MHPA:1,2015-09-04T14:30:00Z,30.6671,-87.9365,1.119,3.33,1111122 
DISL,ioos:station:DISL:MHPA:1,2015-09-04T15:00:00Z,30.6671,-87.9365,1.083,3.27,1111122 
DISL,ioos:station:DISL:MHPA:1,2015-09-04T15:30:00Z,30.6671,-87.9365,1.05,3.25,1111122 
DISL,ioos:station:DISL:MHPA:1,2015-09-04T16:00:00Z,30.6671,-87.9365,1.02,3.24,1111122 
DISL,ioos:station:DISL:MHPA:1,2015-09-04T16:30:00Z,30.6671,-87.9365,0.987,3.25,1111122 
DISL,ioos:station:DISL:MHPA:1,2015-09-04T17:00:00Z,30.6671,-87.9365,0.963,3.26,1111122 
DISL,ioos:station:DISL:MHPA:1,2015-09-04T17:30:00Z,30.6671,-87.9365,0.947,3.27,1111122 
DISL,ioos:station:DISL:MHPA:1,2015-09-04T18:00:00Z,30.6671,-87.9365,0.937,3.25,1111122 
DISL,ioos:station:DISL:MHPA:1,2015-09-04T18:30:00Z,30.6671,-87.9365,0.921,3.28,1111122 
DISL,ioos:station:DISL:MHPA:1,2015-09-04T19:00:00Z,30.6671,-87.9365,0.917,3.26,1111122 
DISL,ioos:station:DISL:MHPA:1,2015-09-04T19:30:00Z,30.6671,-87.9365,0.923,3.26,1111122 
DISL,ioos:station:DISL:MHPA:1,2015-09-04T20:00:00Z,30.6671,-87.9365,0.924,3.26,1111122 
DISL,ioos:station:DISL:MHPA:1,2015-09-04T20:30:00Z,30.6671,-87.9365,0.926,3.27,1111122 
DISL,ioos:station:DISL:MHPA:1,2015-09-04T21:00:00Z,30.6671,-87.9365,0.943,3.27,1111122 
DISL,ioos:station:DISL:MHPA:1,2015-09-04T21:30:00Z,30.6671,-87.9365,0.956,3.27,1111122 
DISL,ioos:station:DISL:MHPA:1,2015-09-04T22:00:00Z,30.6671,-87.9365,0.975,3.27,1111122 
DISL,ioos:station:DISL:MHPA:1,2015-09-04T22:30:00Z,30.6671,-87.9365,0.985,3.27,1111122 
DISL,ioos:station:DISL:MHPA:1,2015-09-04T23:00:00Z,30.6671,-87.9365,0.998,3.28,1111122 
DISL,ioos:station:DISL:MHPA:1,2015-09-04T23:30:00Z,30.6671,-87.9365,1.019,3.27,1111122 
DISL,ioos:station:DISL:MHPA:1,2015-09-05T00:00:00Z,30.6671,-87.9365,1.054,3.27,1111122 
DISL,ioos:station:DISL:MHPA:1,2015-09-05T00:30:00Z,30.6671,-87.9365,1.086,3.28,1111122 
DISL,ioos:station:DISL:MHPA:1,2015-09-05T01:00:00Z,30.6671,-87.9365,1.105,3.28,1111122 
DISL,ioos:station:DISL:MHPA:1,2015-09-05T01:30:00Z,30.6671,-87.9365,1.128,3.29,1111122 
DISL,ioos:station:DISL:MHPA:1,2015-09-05T02:00:00Z,30.6671,-87.9365,1.13,3.3,1111122 
DISL,ioos:station:DISL:MHPA:1,2015-09-05T02:30:00Z,30.6671,-87.9365,1.152,3.3,1111122 
DISL,ioos:station:DISL:MHPA:1,2015-09-05T03:00:00Z,30.6671,-87.9365,1.185,3.3,1111122 
DISL,ioos:station:DISL:MHPA:1,2015-09-05T03:30:00Z,30.6671,-87.9365,1.208,3.3,1111122 
DISL,ioos:station:DISL:MHPA:1,2015-09-05T04:00:00Z,30.6671,-87.9365,1.203,3.3,1111122 
DISL,ioos:station:DISL:MHPA:1,2015-09-05T04:30:00Z,30.6671,-87.9365,1.213,3.3,1111122 
DISL,ioos:station:DISL:MHPA:1,2015-09-05T05:00:00Z,30.6671,-87.9365,1.26,3.29,1111122 
DISL,ioos:station:DISL:MHPA:1,2015-09-05T05:30:00Z,30.6671,-87.9365,1.258,3.29,1111122 
DISL,ioos:station:DISL:MHPA:1,2015-09-05T06:00:00Z,30.6671,-87.9365,1.271,3.29,1111122 
DISL,ioos:station:DISL:MHPA:1,2015-09-05T06:30:00Z,30.6671,-87.9365,1.278,3.29,1111122 
DISL,ioos:station:DISL:MHPA:1,2015-09-05T07:00:00Z,30.6671,-87.9365,1.301,3.29,1111122 
DISL,ioos:station:DISL:MHPA:1,2015-09-05T07:30:00Z,30.6671,-87.9365,1.314,3.29,1111122 
DISL,ioos:station:DISL:MHPA:1,2015-09-05T08:00:00Z,30.6671,-87.9365,1.317,3.29,1111122 
DISL,ioos:station:DISL:MHPA:1,2015-09-05T08:30:00Z,30.6671,-87.9365,1.333,3.3,1111122 
DISL,ioos:station:DISL:MHPA:1,2015-09-05T09:00:00Z,30.6671,-87.9365,1.346,3.3,1111122 
DISL,ioos:station:DISL:MHPA:1,2015-09-05T09:30:00Z,30.6671,-87.9365,1.336,3.3,1111122 
DISL,ioos:station:DISL:MHPA:1,2015-09-05T10:00:00Z,30.6671,-87.9365,1.319,3.3,1111122 
DISL,ioos:station:DISL:MHPA:1,2015-09-05T10:30:00Z,30.6671,-87.9365,1.327,3.29,1111122 
DISL,ioos:station:DISL:MHPA:1,2015-09-05T11:00:00Z,30.6671,-87.9365,1.307,3.31,1111122 
DISL,ioos:station:DISL:MHPA:1,2015-09-05T11:30:00Z,30.6671,-87.9365,1.274,3.31,1111122 
DISL,ioos:station:DISL:MHPA:1,2015-09-05T12:00:00Z,30.6671,-87.9365,1.268,3.3,1111122 
DISL,ioos:station:DISL:MHPA:1,2015-09-05T12:30:00Z,30.6671,-87.9365,1.258,3.3,1111122 
DISL,ioos:station:DISL:MHPA:1,2015-09-05T13:00:00Z,30.6671,-87.9365,1.228,3.3,1111122 
DISL,ioos:station:DISL:MHPA:1,2015-09-05T13:30:00Z,30.6671,-87.9365,1.206,3.3,1111122 
DISL,ioos:station:DISL:MHPA:1,2015-09-05T14:00:00Z,30.6671,-87.9365,1.181,3.3,1111122 
DISL,ioos:station:DISL:MHPA:1,2015-09-05T14:30:00Z,30.6671,-87.9365,1.156,3.33,1111122 
DISL,ioos:station:DISL:MHPA:1,2015-09-05T15:00:00Z,30.6671,-87.9365,1.125,3.34,1111122 
DISL,ioos:station:DISL:MHPA:1,2015-09-05T15:30:00Z,30.6671,-87.9365,1.097,3.34,1111122 
DISL,ioos:station:DISL:MHPA:1,2015-09-05T16:00:00Z,30.6671,-87.9365,1.062,3.35,1111122 
DISL,ioos:station:DISL:MHPA:1,2015-09-05T16:30:00Z,30.6671,-87.9365,1.021,3.35,1111122 
DISL,ioos:station:DISL:MHPA:1,2015-09-05T17:00:00Z,30.6671,-87.9365,0.992,3.34,1111122 
DISL,ioos:station:DISL:MHPA:1,2015-09-05T17:30:00Z,30.6671,-87.9365,0.968,3.33,1111122 
DISL,ioos:station:DISL:MHPA:1,2015-09-05T18:00:00Z,30.6671,-87.9365,0.94,3.4,1111122 
DISL,ioos:station:DISL:MHPA:1,2015-09-05T18:30:00Z,30.6671,-87.9365,0.92,3.42,1111122 
DISL,ioos:station:DISL:MHPA:1,2015-09-05T19:00:00Z,30.6671,-87.9365,0.906,3.36,1111122 
DISL,ioos:station:DISL:MHPA:1,2015-09-05T19:30:00Z,30.6671,-87.9365,0.902,3.32,1111122 
DISL,ioos:station:DISL:MHPA:1,2015-09-05T20:00:00Z,30.6671,-87.9365,0.878,3.33,1111122 
DISL,ioos:station:DISL:MHPA:1,2015-09-05T20:30:00Z,30.6671,-87.9365,0.902,3.33,1111122 
DISL,ioos:station:DISL:MHPA:1,2015-09-05T21:00:00Z,30.6671,-87.9365,0.93,3.33,1111122 
DISL,ioos:station:DISL:MHPA:1,2015-09-05T21:30:00Z,30.6671,-87.9365,0.903,3.33,1111122 
DISL,ioos:station:DISL:MHPA:1,2015-09-05T22:00:00Z,30.6671,-87.9365,0.904,3.33,1111122 
DISL,ioos:station:DISL:MHPA:1,2015-09-05T22:30:00Z,30.6671,-87.9365,0.891,3.33,1111122 
DISL,ioos:station:DISL:MHPA:1,2015-09-05T23:00:00Z,30.6671,-87.9365,0.862,3.33,1111122 
DISL,ioos:station:DISL:MHPA:1,2015-09-05T23:30:00Z,30.6671,-87.9365,0.851,3.34,1111122 
DISL,ioos:station:DISL:MHPA:1,2015-09-06T00:00:00Z,30.6671,-87.9365,0.864,3.35,1111122 
DISL,ioos:station:DISL:MHPA:1,2015-09-06T00:30:00Z,30.6671,-87.9365,0.914,3.34,1111122 
DISL,ioos:station:DISL:MHPA:1,2015-09-06T01:00:00Z,30.6671,-87.9365,0.959,3.34,1111122 
DISL,ioos:station:DISL:MHPA:1,2015-09-06T01:30:00Z,30.6671,-87.9365,0.978,3.35,1111122 
DISL,ioos:station:DISL:MHPA:1,2015-09-06T02:00:00Z,30.6671,-87.9365,1.002,3.35,1111122 
DISL,ioos:station:DISL:MHPA:1,2015-09-06T02:30:00Z,30.6671,-87.9365,1.011,3.34,1111122 
DISL,ioos:station:DISL:MHPA:1,2015-09-06T03:00:00Z,30.6671,-87.9365,1.058,3.34,1111122 
DISL,ioos:station:DISL:MHPA:1,2015-09-06T03:30:00Z,30.6671,-87.9365,1.071,3.34,1111122 
DISL,ioos:station:DISL:MHPA:1,2015-09-06T04:00:00Z,30.6671,-87.9365,1.087,3.35,1111122 
DISL,ioos:station:DISL:MHPA:1,2015-09-06T04:30:00Z,30.6671,-87.9365,1.121,3.35,1111122 
DISL,ioos:station:DISL:MHPA:1,2015-09-06T05:00:00Z,30.6671,-87.9365,1.159,3.35,1111122 
DISL,ioos:station:DISL:MHPA:1,2015-09-06T05:30:00Z,30.6671,-87.9365,1.161,3.35,1111122 
DISL,ioos:station:DISL:MHPA:1,2015-09-06T06:00:00Z,30.6671,-87.9365,1.175,3.36,1111122 
DISL,ioos:station:DISL:MHPA:1,2015-09-06T06:30:00Z,30.6671,-87.9365,1.183,3.36,1111122 
DISL,ioos:station:DISL:MHPA:1,2015-09-06T07:00:00Z,30.6671,-87.9365,1.191,3.36,1111122 
DISL,ioos:station:DISL:MHPA:1,2015-09-06T07:30:00Z,30.6671,-87.9365,1.25,3.37,1111122 
DISL,ioos:station:DISL:MHPA:1,2015-09-06T08:00:00Z,30.6671,-87.9365,1.308,3.37,1111122 
DISL,ioos:station:DISL:MHPA:1,2015-09-06T08:30:00Z,30.6671,-87.9365,1.32,3.37,1111122 
DISL,ioos:station:DISL:MHPA:1,2015-09-06T09:00:00Z,30.6671,-87.9365,1.318,3.37,1111122 
DISL,ioos:station:DISL:MHPA:1,2015-09-06T09:30:00Z,30.6671,-87.9365,1.351,3.37,1111122 
DISL,ioos:station:DISL:MHPA:1,2015-09-06T10:00:00Z,30.6671,-87.9365,1.331,3.37,1111122 
DISL,ioos:station:DISL:MHPA:1,2015-09-06T10:30:00Z,30.6671,-87.9365,1.339,3.37,1111122 
DISL,ioos:station:DISL:MHPA:1,2015-09-06T11:00:00Z,30.6671,-87.9365,1.409,3.36,1111122 
DISL,ioos:station:DISL:MHPA:1,2015-09-06T11:30:00Z,30.6671,-87.9365,1.412,3.33,1111122 
DISL,ioos:station:DISL:MHPA:1,2015-09-06T12:00:00Z,30.6671,-87.9365,1.413,3.32,1111122 
DISL,ioos:station:DISL:MHPA:1,2015-09-06T12:30:00Z,30.6671,-87.9365,1.399,3.33,1111122 
DISL,ioos:station:DISL:MHPA:1,2015-09-06T13:00:00Z,30.6671,-87.9365,1.398,3.32,1111122 
DISL,ioos:station:DISL:MHPA:1,2015-09-06T13:30:00Z,30.6671,-87.9365,1.395,3.32,1111122 
DISL,ioos:station:DISL:MHPA:1,2015-09-06T14:00:00Z,30.6671,-87.9365,1.383,3.32,1111122 
DISL,ioos:station:DISL:MHPA:1,2015-09-06T14:30:00Z,30.6671,-87.9365,1.365,3.31,1111122 
DISL,ioos:station:DISL:MHPA:1,2015-09-06T15:00:00Z,30.6671,-87.9365,1.325,3.3,1111122 
DISL,ioos:station:DISL:MHPA:1,2015-09-06T15:30:00Z,30.6671,-87.9365,1.286,3.3,1111122 